Time,TemperatureF,DewpointF,PressureIn,WindDirection,WindDirectionDegrees,WindSpeedMPH,WindSpeedGustMPH,Humidity,HourlyPrecipIn,Conditions,Clouds,dailyrainin,SoftwareType,DateUTC
2013-07-19 00:00:00,68.1,66.0,30.03,NNW,331,0.0,0.0,93,0.00,,,0.01,VWS V14.01,2013-07-19 04:00:00,
2013-07-19 00:01:00,68.1,66.0,30.03,NNW,331,0.0,0.0,93,0.00,,,0.01,VWS V14.01,2013-07-19 04:01:00,
2013-07-19 00:02:00,68.1,66.0,30.03,NNW,331,0.0,0.0,93,0.00,,,0.01,VWS V14.01,2013-07-19 04:02:00,
2013-07-19 00:04:00,68.1,66.0,30.03,NNW,331,0.0,0.0,93,0.00,,,0.00,VWS V14.01,2013-07-19 04:04:00,
2013-07-19 00:05:00,67.9,65.8,30.03,NNW,331,0.0,0.0,93,0.00,,,0.00,VWS V14.01,2013-07-19 04:05:00,
2013-07-19 00:10:00,67.9,65.8,30.03,NNW,331,0.0,0.0,93,0.00,,,0.00,VWS V14.01,2013-07-19 04:10:00,
2013-07-19 00:15:00,67.8,65.7,30.03,NNW,331,0.0,0.0,93,0.00,,,0.00,VWS V14.01,2013-07-19 04:15:00,
2013-07-19 00:20:00,67.8,66.0,30.02,NNW,331,0.0,0.0,94,0.00,,,0.00,VWS V14.01,2013-07-19 04:20:00,
2013-07-19 00:25:00,67.8,66.0,30.02,NNW,331,0.0,0.0,94,0.00,,,0.00,VWS V14.01,2013-07-19 04:25:00,
2013-07-19 00:30:00,67.6,65.8,30.02,NNW,331,0.0,0.0,94,0.00,,,0.00,VWS V14.01,2013-07-19 04:30:00,
2013-07-19 00:35:00,67.6,65.8,30.01,NNW,331,0.0,0.0,94,0.00,,,0.00,VWS V14.01,2013-07-19 04:35:00,
2013-07-19 00:40:00,67.6,65.8,30.01,NNW,331,0.0,0.0,94,0.00,,,0.00,VWS V14.01,2013-07-19 04:40:00,
2013-07-19 00:45:00,67.6,66.1,30.01,NNW,331,0.0,0.0,95,0.00,,,0.00,VWS V14.01,2013-07-19 04:45:00,
2013-07-19 00:50:00,67.6,66.1,30.01,NNW,331,0.0,0.0,95,0.00,,,0.00,VWS V14.01,2013-07-19 04:50:00,
2013-07-19 00:55:00,67.6,66.1,30.01,NNW,331,0.0,0.0,95,0.00,,,0.00,VWS V14.01,2013-07-19 04:55:00,
2013-07-19 01:00:00,67.6,66.1,30.01,NNW,331,0.0,0.0,95,0.00,,,0.00,VWS V14.01,2013-07-19 05:00:00,
2013-07-19 01:05:00,67.6,66.1,30.01,NNW,331,0.0,0.0,95,0.00,,,0.00,VWS V14.01,2013-07-19 05:05:00,
2013-07-19 01:10:00,67.6,66.1,30.01,NNW,331,0.0,0.0,95,0.00,,,0.00,VWS V14.01,2013-07-19 05:10:00,
2013-07-19 01:15:00,67.4,65.9,30.01,NNW,331,0.0,0.0,95,0.00,,,0.00,VWS V14.01,2013-07-19 05:15:00,
2013-07-19 01:20:00,67.4,65.9,30.00,NNW,331,0.0,0.0,95,0.00,,,0.00,VWS V14.01,2013-07-19 05:20:00,
2013-07-19 01:25:00,67.4,65.9,30.00,NNW,331,0.0,0.0,95,0.00,,,0.00,VWS V14.01,2013-07-19 05:25:00,
2013-07-19 01:30:00,67.4,65.9,30.00,NNW,331,0.0,0.0,95,0.00,,,0.00,VWS V14.01,2013-07-19 05:30:00,
2013-07-19 01:35:00,67.3,66.1,30.00,NNW,331,0.0,0.0,96,0.00,,,0.00,VWS V14.01,2013-07-19 05:35:00,
2013-07-19 01:40:00,67.3,66.1,30.00,NNW,331,0.0,0.0,96,0.00,,,0.00,VWS V14.01,2013-07-19 05:40:00,
2013-07-19 01:41:00,67.3,66.1,30.00,NNW,331,0.0,0.0,96,0.00,,,0.00,VWS V14.01,2013-07-19 05:41:00,
2013-07-19 01:45:00,67.1,65.9,29.99,NNW,331,0.0,0.0,96,0.00,,,0.00,VWS V14.01,2013-07-19 05:45:00,
2013-07-19 01:46:00,67.1,65.9,30.00,NNW,331,0.0,0.0,96,0.00,,,0.00,VWS V14.01,2013-07-19 05:46:00,
2013-07-19 01:50:00,67.1,65.9,29.99,NNW,331,0.0,0.0,96,0.00,,,0.00,VWS V14.01,2013-07-19 05:50:00,
2013-07-19 01:51:00,67.1,65.9,29.99,NNW,331,0.0,0.0,96,0.00,,,0.00,VWS V14.01,2013-07-19 05:51:00,
2013-07-19 01:55:00,66.9,65.7,29.99,NNW,331,0.0,0.0,96,0.00,,,0.00,VWS V14.01,2013-07-19 05:55:00,
2013-07-19 01:56:00,66.9,65.7,29.99,NNW,331,0.0,0.0,96,0.00,,,0.00,VWS V14.01,2013-07-19 05:56:00,
2013-07-19 02:00:00,66.9,65.7,30.00,NNW,331,0.0,0.0,96,0.00,,,0.00,VWS V14.01,2013-07-19 06:00:00,
2013-07-19 02:01:00,66.9,65.7,29.99,NNW,331,0.0,0.0,96,0.00,,,0.00,VWS V14.01,2013-07-19 06:01:00,
2013-07-19 02:05:00,66.9,65.7,30.00,NNW,331,0.0,0.0,96,0.00,,,0.00,VWS V14.01,2013-07-19 06:05:00,
2013-07-19 02:06:00,66.9,65.7,30.00,NNW,331,0.0,0.0,96,0.00,,,0.00,VWS V14.01,2013-07-19 06:06:00,
2013-07-19 02:10:00,66.9,65.7,30.00,NNW,331,0.0,0.0,96,0.00,,,0.00,VWS V14.01,2013-07-19 06:10:00,
2013-07-19 02:11:00,66.8,65.6,30.00,NNW,331,0.0,0.0,96,0.00,,,0.00,VWS V14.01,2013-07-19 06:11:00,
2013-07-19 02:15:00,66.9,65.7,29.99,NNW,331,0.0,0.0,96,0.00,,,0.00,VWS V14.01,2013-07-19 06:15:00,
2013-07-19 02:16:00,66.9,65.7,30.00,NNW,331,0.0,0.0,96,0.00,,,0.00,VWS V14.01,2013-07-19 06:16:00,
2013-07-19 02:20:00,66.9,65.7,29.99,NNW,331,0.0,0.0,96,0.00,,,0.00,VWS V14.01,2013-07-19 06:20:00,
2013-07-19 02:21:00,66.9,65.7,29.99,NNW,331,0.0,0.0,96,0.00,,,0.00,VWS V14.01,2013-07-19 06:21:00,
2013-07-19 02:25:00,66.9,65.7,29.99,NNW,331,0.0,0.0,96,0.00,,,0.00,VWS V14.01,2013-07-19 06:25:00,
2013-07-19 02:26:00,66.9,65.7,29.99,NNW,331,0.0,0.0,96,0.00,,,0.00,VWS V14.01,2013-07-19 06:26:00,
2013-07-19 02:30:00,66.9,65.7,29.98,NNW,331,0.0,0.0,96,0.00,,,0.00,VWS V14.01,2013-07-19 06:30:00,
2013-07-19 02:31:00,66.9,65.7,29.99,NNW,331,0.0,0.0,96,0.00,,,0.00,VWS V14.01,2013-07-19 06:31:00,
2013-07-19 02:35:00,66.9,65.7,29.98,NNW,331,0.0,0.0,96,0.00,,,0.00,VWS V14.01,2013-07-19 06:35:00,
2013-07-19 02:36:00,66.9,65.7,29.98,NNW,331,0.0,0.0,96,0.00,,,0.00,VWS V14.01,2013-07-19 06:36:00,
2013-07-19 02:40:00,66.8,65.6,29.98,NNW,331,0.0,0.0,96,0.00,,,0.00,VWS V14.01,2013-07-19 06:40:00,
2013-07-19 02:41:00,66.8,65.6,29.98,NNW,331,0.0,0.0,96,0.00,,,0.00,VWS V14.01,2013-07-19 06:41:00,
2013-07-19 02:45:00,66.8,65.6,29.98,NNW,331,0.0,0.0,96,0.00,,,0.00,VWS V14.01,2013-07-19 06:45:00,
2013-07-19 02:46:00,66.8,65.6,29.98,NNW,331,0.0,0.0,96,0.00,,,0.00,VWS V14.01,2013-07-19 06:46:00,
2013-07-19 02:50:00,66.6,65.4,29.98,NNW,331,0.0,0.0,96,0.00,,,0.00,VWS V14.01,2013-07-19 06:50:00,
2013-07-19 02:51:00,66.6,65.4,29.98,NNW,331,0.0,0.0,96,0.00,,,0.00,VWS V14.01,2013-07-19 06:51:00,
2013-07-19 02:55:00,66.6,65.4,29.98,NNW,331,0.0,0.0,96,0.00,,,0.00,VWS V14.01,2013-07-19 06:55:00,
2013-07-19 02:56:00,66.6,65.4,29.98,NNW,331,0.0,0.0,96,0.00,,,0.00,VWS V14.01,2013-07-19 06:56:00,
2013-07-19 03:00:00,66.6,65.4,29.97,NNW,331,0.0,0.0,96,0.00,,,0.00,VWS V14.01,2013-07-19 07:00:00,
2013-07-19 03:01:00,66.6,65.4,29.97,NNW,331,0.0,0.0,96,0.00,,,0.00,VWS V14.01,2013-07-19 07:01:00,
2013-07-19 03:05:00,66.6,65.4,29.97,NNW,331,0.0,0.0,96,0.00,,,0.00,VWS V14.01,2013-07-19 07:05:00,
2013-07-19 03:06:00,66.6,65.4,29.97,NNW,331,0.0,0.0,96,0.00,,,0.00,VWS V14.01,2013-07-19 07:06:00,
2013-07-19 03:10:00,66.6,65.4,29.97,NNW,331,0.0,0.0,96,0.00,,,0.00,VWS V14.01,2013-07-19 07:10:00,
2013-07-19 03:12:00,66.6,65.4,29.97,NNW,331,0.0,0.0,96,0.00,,,0.00,VWS V14.01,2013-07-19 07:12:00,
2013-07-19 03:15:00,66.8,65.6,29.97,NNW,331,0.0,0.0,96,0.00,,,0.00,VWS V14.01,2013-07-19 07:15:00,
2013-07-19 03:17:00,66.8,65.6,29.97,NNW,331,0.0,0.0,96,0.00,,,0.00,VWS V14.01,2013-07-19 07:17:00,
2013-07-19 03:20:00,66.8,65.6,29.97,NNW,331,0.0,0.0,96,0.00,,,0.00,VWS V14.01,2013-07-19 07:20:00,
2013-07-19 03:22:00,66.8,65.6,29.97,NNW,331,0.0,0.0,96,0.00,,,0.00,VWS V14.01,2013-07-19 07:22:00,
2013-07-19 03:25:00,66.8,65.6,29.97,NNW,331,0.0,0.0,96,0.00,,,0.00,VWS V14.01,2013-07-19 07:25:00,
2013-07-19 03:27:00,66.8,65.6,29.97,NNW,331,0.0,0.0,96,0.00,,,0.00,VWS V14.01,2013-07-19 07:27:00,
2013-07-19 03:30:00,66.8,65.6,29.97,NNW,331,0.0,0.0,96,0.00,,,0.00,VWS V14.01,2013-07-19 07:30:00,
2013-07-19 03:32:00,66.8,65.6,29.97,NNW,331,0.0,0.0,96,0.00,,,0.00,VWS V14.01,2013-07-19 07:32:00,
2013-07-19 03:35:00,66.8,65.6,29.97,NNW,331,0.0,0.0,96,0.00,,,0.00,VWS V14.01,2013-07-19 07:35:00,
2013-07-19 03:37:00,66.8,65.6,29.97,NNW,331,0.0,0.0,96,0.00,,,0.00,VWS V14.01,2013-07-19 07:37:00,
2013-07-19 03:40:00,66.6,65.4,29.97,NNW,331,0.0,0.0,96,0.00,,,0.00,VWS V14.01,2013-07-19 07:40:00,
2013-07-19 03:42:00,66.6,65.4,29.97,NNW,331,0.0,0.0,96,0.00,,,0.00,VWS V14.01,2013-07-19 07:42:00,
2013-07-19 03:45:00,66.6,65.4,29.96,NNW,331,0.0,0.0,96,0.00,,,0.00,VWS V14.01,2013-07-19 07:45:00,
2013-07-19 03:47:00,66.6,65.4,29.96,NNW,331,0.0,0.0,96,0.00,,,0.00,VWS V14.01,2013-07-19 07:47:00,
2013-07-19 03:50:00,66.6,65.4,29.96,NNW,331,0.0,0.0,96,0.00,,,0.00,VWS V14.01,2013-07-19 07:50:00,
2013-07-19 03:52:00,66.6,65.4,29.96,NNW,331,0.0,0.0,96,0.00,,,0.00,VWS V14.01,2013-07-19 07:52:00,
2013-07-19 03:55:00,66.6,65.7,29.96,NNW,331,0.0,0.0,97,0.00,,,0.00,VWS V14.01,2013-07-19 07:55:00,
2013-07-19 03:57:00,66.6,65.7,29.96,NNW,331,0.0,0.0,97,0.00,,,0.00,VWS V14.01,2013-07-19 07:57:00,
2013-07-19 04:00:00,66.6,65.7,29.96,NNW,331,0.0,0.0,97,0.00,,,0.00,VWS V14.01,2013-07-19 08:00:00,
2013-07-19 04:02:00,66.6,65.7,29.96,NNW,331,0.0,0.0,97,0.00,,,0.00,VWS V14.01,2013-07-19 08:02:00,
2013-07-19 04:05:00,66.6,65.7,29.96,NNW,331,0.0,0.0,97,0.00,,,0.00,VWS V14.01,2013-07-19 08:05:00,
2013-07-19 04:07:00,66.6,65.7,29.96,NNW,331,0.0,0.0,97,0.00,,,0.00,VWS V14.01,2013-07-19 08:07:00,
2013-07-19 04:10:00,66.4,65.5,29.96,NNW,331,0.0,0.0,97,0.00,,,0.00,VWS V14.01,2013-07-19 08:10:00,
2013-07-19 04:12:00,66.4,65.5,29.96,NNW,331,0.0,0.0,97,0.00,,,0.00,VWS V14.01,2013-07-19 08:12:00,
2013-07-19 04:15:00,66.4,65.5,29.96,NNW,331,0.0,0.0,97,0.00,,,0.00,VWS V14.01,2013-07-19 08:15:00,
2013-07-19 04:17:00,66.4,65.5,29.96,NNW,331,0.0,0.0,97,0.00,,,0.00,VWS V14.01,2013-07-19 08:17:00,
2013-07-19 04:20:00,66.6,65.7,29.96,NNW,331,0.0,0.0,97,0.00,,,0.00,VWS V14.01,2013-07-19 08:20:00,
2013-07-19 04:22:00,66.6,65.7,29.96,NNW,331,0.0,0.0,97,0.00,,,0.00,VWS V14.01,2013-07-19 08:22:00,
2013-07-19 04:25:00,66.6,65.7,29.96,NNW,331,0.0,0.0,97,0.00,,,0.00,VWS V14.01,2013-07-19 08:25:00,
2013-07-19 04:27:00,66.6,65.7,29.96,NNW,331,0.0,0.0,97,0.00,,,0.00,VWS V14.01,2013-07-19 08:27:00,
2013-07-19 04:30:00,66.4,65.5,29.96,NNW,331,0.0,0.0,97,0.00,,,0.00,VWS V14.01,2013-07-19 08:30:00,
2013-07-19 04:32:00,66.4,65.5,29.96,NNW,331,0.0,0.0,97,0.00,,,0.00,VWS V14.01,2013-07-19 08:32:00,
2013-07-19 04:35:00,66.4,65.5,29.96,NNW,331,0.0,0.0,97,0.00,,,0.00,VWS V14.01,2013-07-19 08:35:00,
2013-07-19 04:37:00,66.4,65.5,29.96,NNW,331,0.0,0.0,97,0.00,,,0.00,VWS V14.01,2013-07-19 08:37:00,
2013-07-19 04:40:00,66.3,65.4,29.96,NNW,331,0.0,0.0,97,0.00,,,0.00,VWS V14.01,2013-07-19 08:40:00,
2013-07-19 04:42:00,66.3,65.4,29.96,NNW,331,0.0,0.0,97,0.00,,,0.00,VWS V14.01,2013-07-19 08:42:00,
2013-07-19 04:45:00,66.3,65.4,29.96,NNW,331,0.0,0.0,97,0.00,,,0.00,VWS V14.01,2013-07-19 08:45:00,
2013-07-19 04:48:00,66.3,65.4,29.96,NNW,331,0.0,0.0,97,0.00,,,0.00,VWS V14.01,2013-07-19 08:48:00,
2013-07-19 04:50:00,66.3,65.4,29.96,NNW,331,0.0,0.0,97,0.00,,,0.00,VWS V14.01,2013-07-19 08:50:00,
2013-07-19 04:53:00,66.3,65.4,29.96,NNW,331,0.0,0.0,97,0.00,,,0.00,VWS V14.01,2013-07-19 08:53:00,
2013-07-19 04:55:00,66.3,65.4,29.96,NNW,331,0.0,0.0,97,0.00,,,0.00,VWS V14.01,2013-07-19 08:55:00,
2013-07-19 04:58:00,66.3,65.4,29.96,NNW,331,0.0,0.0,97,0.00,,,0.00,VWS V14.01,2013-07-19 08:58:00,
2013-07-19 05:00:00,66.3,65.4,29.95,NNW,331,0.0,0.0,97,0.00,,,0.00,VWS V14.01,2013-07-19 09:00:00,
2013-07-19 05:03:00,66.3,65.4,29.95,NNW,331,0.0,0.0,97,0.00,,,0.00,VWS V14.01,2013-07-19 09:03:00,
2013-07-19 05:05:00,66.3,65.4,29.95,NNW,331,0.0,0.0,97,0.00,,,0.00,VWS V14.01,2013-07-19 09:05:00,
2013-07-19 05:08:00,66.3,65.4,29.95,NNW,331,0.0,0.0,97,0.00,,,0.00,VWS V14.01,2013-07-19 09:08:00,
2013-07-19 05:10:00,66.3,65.4,29.95,NNW,331,0.0,0.0,97,0.00,,,0.00,VWS V14.01,2013-07-19 09:10:00,
2013-07-19 05:13:00,66.3,65.4,29.95,NNW,331,0.0,0.0,97,0.00,,,0.00,VWS V14.01,2013-07-19 09:13:00,
2013-07-19 05:15:00,66.3,65.4,29.97,NNW,331,0.0,0.0,97,0.00,,,0.00,VWS V14.01,2013-07-19 09:15:00,
2013-07-19 05:18:00,66.3,65.4,29.97,NNW,331,0.0,0.0,97,0.00,,,0.00,VWS V14.01,2013-07-19 09:18:00,
2013-07-19 05:20:00,66.3,65.4,29.97,NNW,331,0.0,0.0,97,0.00,,,0.00,VWS V14.01,2013-07-19 09:20:00,
2013-07-19 05:23:00,66.3,65.4,29.97,NNW,331,0.0,0.0,97,0.00,,,0.00,VWS V14.01,2013-07-19 09:23:00,
2013-07-19 05:25:00,66.3,65.4,29.97,NNW,331,0.0,0.0,97,0.00,,,0.00,VWS V14.01,2013-07-19 09:25:00,
2013-07-19 05:28:00,66.3,65.4,29.97,NNW,331,0.0,0.0,97,0.00,,,0.00,VWS V14.01,2013-07-19 09:28:00,
2013-07-19 05:30:00,66.3,65.4,29.97,NNW,331,0.0,0.0,97,0.00,,,0.00,VWS V14.01,2013-07-19 09:30:00,
2013-07-19 05:33:00,66.1,65.2,29.97,NNW,331,0.0,0.0,97,0.00,,,0.00,VWS V14.01,2013-07-19 09:33:00,
2013-07-19 05:35:00,66.1,65.2,29.97,NNW,331,0.0,0.0,97,0.00,,,0.00,VWS V14.01,2013-07-19 09:35:00,
2013-07-19 05:38:00,66.1,65.2,29.97,NNW,331,0.0,0.0,97,0.00,,,0.00,VWS V14.01,2013-07-19 09:38:00,
2013-07-19 05:40:00,66.0,65.1,29.97,NNW,331,0.0,0.0,97,0.00,,,0.00,VWS V14.01,2013-07-19 09:40:00,
2013-07-19 05:43:00,66.0,65.1,29.97,NNW,331,0.0,0.0,97,0.00,,,0.00,VWS V14.01,2013-07-19 09:43:00,
2013-07-19 05:45:00,66.0,65.1,29.97,NNW,331,0.0,0.0,97,0.00,,,0.00,VWS V14.01,2013-07-19 09:45:00,
2013-07-19 05:48:00,66.0,65.1,29.97,NNW,331,0.0,0.0,97,0.00,,,0.00,VWS V14.01,2013-07-19 09:48:00,
2013-07-19 05:50:00,66.1,65.2,29.97,NNW,331,0.0,0.0,97,0.00,,,0.00,VWS V14.01,2013-07-19 09:50:00,
2013-07-19 05:53:00,66.1,65.2,29.97,NNW,331,0.0,0.0,97,0.00,,,0.00,VWS V14.01,2013-07-19 09:53:00,
2013-07-19 05:55:00,66.0,65.1,29.97,NNW,331,0.0,0.0,97,0.00,,,0.00,VWS V14.01,2013-07-19 09:55:00,
2013-07-19 05:58:00,66.0,65.1,29.97,NNW,331,0.0,0.0,97,0.00,,,0.00,VWS V14.01,2013-07-19 09:58:00,
2013-07-19 06:00:00,66.0,65.1,29.97,NNW,331,0.0,0.0,97,0.00,,,0.00,VWS V14.01,2013-07-19 10:00:00,
2013-07-19 06:03:00,66.0,65.1,29.97,NNW,331,0.0,0.0,97,0.00,,,0.00,VWS V14.01,2013-07-19 10:03:00,
2013-07-19 06:05:00,66.0,65.1,29.97,NNW,331,0.0,0.0,97,0.00,,,0.00,VWS V14.01,2013-07-19 10:05:00,
2013-07-19 06:08:00,65.8,64.9,29.97,NNW,331,0.0,0.0,97,0.00,,,0.00,VWS V14.01,2013-07-19 10:08:00,
2013-07-19 06:10:00,65.8,64.9,29.97,NNW,331,0.0,0.0,97,0.00,,,0.00,VWS V14.01,2013-07-19 10:10:00,
2013-07-19 06:13:00,65.8,64.9,29.97,NNW,331,0.0,0.0,97,0.00,,,0.00,VWS V14.01,2013-07-19 10:13:00,
2013-07-19 06:15:00,65.8,64.9,29.99,NNW,331,0.0,0.0,97,0.00,,,0.00,VWS V14.01,2013-07-19 10:15:00,
2013-07-19 06:18:00,65.8,64.9,29.99,NNW,331,0.0,0.0,97,0.00,,,0.00,VWS V14.01,2013-07-19 10:18:00,
2013-07-19 06:20:00,66.0,65.1,29.99,NNW,331,0.0,0.0,97,0.00,,,0.00,VWS V14.01,2013-07-19 10:20:00,
2013-07-19 06:23:00,66.0,65.1,29.99,NNW,331,0.0,0.0,97,0.00,,,0.00,VWS V14.01,2013-07-19 10:23:00,
2013-07-19 06:25:00,66.0,65.1,29.99,NNW,331,0.0,0.0,97,0.00,,,0.00,VWS V14.01,2013-07-19 10:25:00,
2013-07-19 06:29:00,66.0,65.1,29.99,NNW,331,0.0,0.0,97,0.00,,,0.00,VWS V14.01,2013-07-19 10:29:00,
2013-07-19 06:30:00,66.0,65.1,29.99,NNW,331,0.0,0.0,97,0.00,,,0.00,VWS V14.01,2013-07-19 10:30:00,
2013-07-19 06:34:00,66.0,65.1,29.99,NNW,331,0.0,0.0,97,0.00,,,0.00,VWS V14.01,2013-07-19 10:34:00,
2013-07-19 06:35:00,66.0,65.1,29.99,NNW,331,0.0,0.0,97,0.00,,,0.00,VWS V14.01,2013-07-19 10:35:00,
2013-07-19 06:39:00,66.0,65.1,29.99,NNW,331,0.0,0.0,97,0.00,,,0.00,VWS V14.01,2013-07-19 10:39:00,
2013-07-19 06:40:00,66.0,65.1,29.99,NNW,331,0.0,0.0,97,0.00,,,0.00,VWS V14.01,2013-07-19 10:40:00,
2013-07-19 06:44:00,66.0,65.1,29.99,NNW,331,0.0,0.0,97,0.00,,,0.00,VWS V14.01,2013-07-19 10:44:00,
2013-07-19 06:45:00,66.0,65.1,30.00,NNW,331,0.0,0.0,97,0.00,,,0.00,VWS V14.01,2013-07-19 10:45:00,
2013-07-19 06:49:00,66.0,65.1,30.00,NNW,331,0.0,0.0,97,0.00,,,0.00,VWS V14.01,2013-07-19 10:49:00,
2013-07-19 06:50:00,66.0,65.1,30.00,NNW,331,0.0,0.0,97,0.00,,,0.00,VWS V14.01,2013-07-19 10:50:00,
2013-07-19 06:54:00,66.0,65.1,30.00,NNW,331,0.0,0.0,97,0.00,,,0.00,VWS V14.01,2013-07-19 10:54:00,
2013-07-19 06:55:00,66.0,65.1,30.00,NNW,331,0.0,0.0,97,0.00,,,0.00,VWS V14.01,2013-07-19 10:55:00,
2013-07-19 06:59:00,66.0,65.1,30.00,NNW,331,0.0,0.0,97,0.00,,,0.00,VWS V14.01,2013-07-19 10:59:00,
2013-07-19 07:00:00,66.0,65.1,30.00,NNW,331,0.0,0.0,97,0.00,,,0.00,VWS V14.01,2013-07-19 11:00:00,
2013-07-19 07:04:00,66.1,65.2,30.00,NNW,331,0.0,0.0,97,0.00,,,0.00,VWS V14.01,2013-07-19 11:04:00,
2013-07-19 07:05:00,66.1,65.2,30.00,NNW,331,0.0,0.0,97,0.00,,,0.00,VWS V14.01,2013-07-19 11:05:00,
2013-07-19 07:09:00,66.1,65.2,30.00,NNW,331,0.0,0.0,97,0.00,,,0.00,VWS V14.01,2013-07-19 11:09:00,
2013-07-19 07:10:00,66.3,65.4,30.00,NNW,331,0.0,0.0,97,0.00,,,0.00,VWS V14.01,2013-07-19 11:10:00,
2013-07-19 07:14:00,66.3,65.4,30.00,NNW,331,0.0,0.0,97,0.00,,,0.00,VWS V14.01,2013-07-19 11:14:00,
2013-07-19 07:15:00,66.3,65.4,30.00,NNW,331,0.0,0.0,97,0.00,,,0.00,VWS V14.01,2013-07-19 11:15:00,
2013-07-19 07:19:00,66.3,65.4,30.00,NNW,331,0.0,0.0,97,0.00,,,0.00,VWS V14.01,2013-07-19 11:19:00,
2013-07-19 07:20:00,66.3,65.4,30.00,NNW,331,0.0,0.0,97,0.00,,,0.00,VWS V14.01,2013-07-19 11:20:00,
2013-07-19 07:24:00,66.3,65.4,30.00,NNW,331,0.0,0.0,97,0.00,,,0.00,VWS V14.01,2013-07-19 11:24:00,
2013-07-19 07:25:00,66.3,65.7,30.00,NNW,331,0.0,0.0,98,0.00,,,0.00,VWS V14.01,2013-07-19 11:25:00,
2013-07-19 07:29:00,66.3,65.4,30.00,NNW,331,0.0,0.0,97,0.00,,,0.00,VWS V14.01,2013-07-19 11:29:00,
2013-07-19 07:30:00,66.3,65.4,30.00,NNW,331,0.0,0.0,97,0.00,,,0.00,VWS V14.01,2013-07-19 11:30:00,
2013-07-19 07:34:00,66.3,65.4,30.00,NNW,331,0.0,0.0,97,0.00,,,0.00,VWS V14.01,2013-07-19 11:34:00,
2013-07-19 07:35:00,66.4,65.5,30.00,NNW,331,0.0,0.0,97,0.00,,,0.00,VWS V14.01,2013-07-19 11:35:00,
2013-07-19 07:39:00,66.4,65.5,30.00,NNW,331,0.0,0.0,97,0.00,,,0.00,VWS V14.01,2013-07-19 11:39:00,
2013-07-19 07:40:00,66.4,65.8,30.00,NNW,331,0.0,0.0,98,0.00,,,0.00,VWS V14.01,2013-07-19 11:40:00,
2013-07-19 07:44:00,66.4,65.8,30.00,NNW,331,0.0,0.0,98,0.00,,,0.00,VWS V14.01,2013-07-19 11:44:00,
2013-07-19 07:45:00,66.6,66.0,30.01,NNW,331,0.0,0.0,98,0.00,,,0.00,VWS V14.01,2013-07-19 11:45:00,
2013-07-19 07:49:00,66.6,66.0,30.01,NNW,331,0.0,0.0,98,0.00,,,0.00,VWS V14.01,2013-07-19 11:49:00,
2013-07-19 07:50:00,66.9,66.3,30.01,NNW,331,0.0,0.0,98,0.00,,,0.00,VWS V14.01,2013-07-19 11:50:00,
2013-07-19 07:54:00,67.1,66.5,30.01,NNW,331,0.0,0.0,98,0.00,,,0.00,VWS V14.01,2013-07-19 11:54:00,
2013-07-19 07:55:00,67.3,66.7,30.01,NNW,331,0.0,0.0,98,0.00,,,0.00,VWS V14.01,2013-07-19 11:55:00,
2013-07-19 08:00:00,67.4,66.8,30.01,NNW,331,0.0,0.0,98,0.00,,,0.00,VWS V14.01,2013-07-19 12:00:00,
2013-07-19 08:05:00,67.8,67.2,30.01,NNW,331,0.0,0.0,98,0.00,,,0.00,VWS V14.01,2013-07-19 12:05:00,
2013-07-19 08:10:00,67.9,67.3,30.01,WNW,286,2.0,0.0,98,0.00,,,0.00,VWS V14.01,2013-07-19 12:10:00,
2013-07-19 08:15:00,68.1,67.5,30.01,WNW,286,0.0,0.0,98,0.00,,,0.00,VWS V14.01,2013-07-19 12:15:00,
2013-07-19 08:20:00,68.1,67.5,30.02,WNW,286,0.0,0.0,98,0.00,,,0.00,VWS V14.01,2013-07-19 12:20:00,
2013-07-19 08:25:00,68.3,67.7,30.02,WNW,286,0.0,0.0,98,0.00,,,0.00,VWS V14.01,2013-07-19 12:25:00,
2013-07-19 08:30:00,68.4,67.8,30.02,WNW,286,0.0,0.0,98,0.00,,,0.00,VWS V14.01,2013-07-19 12:30:00,
2013-07-19 08:35:00,68.6,68.0,30.02,WNW,286,0.0,0.0,98,0.00,,,0.00,VWS V14.01,2013-07-19 12:35:00,
2013-07-19 08:40:00,68.8,68.2,30.02,WNW,286,0.0,0.0,98,0.00,,,0.00,VWS V14.01,2013-07-19 12:40:00,
2013-07-19 08:45:00,68.8,68.2,30.02,WNW,286,0.0,0.0,98,0.00,,,0.00,VWS V14.01,2013-07-19 12:45:00,
2013-07-19 08:50:00,68.9,68.3,30.02,WNW,286,0.0,0.0,98,0.00,,,0.00,VWS V14.01,2013-07-19 12:50:00,
2013-07-19 08:55:00,68.9,68.3,30.02,WNW,286,0.0,0.0,98,0.00,,,0.00,VWS V14.01,2013-07-19 12:55:00,
2013-07-19 08:56:00,68.9,68.3,30.02,WNW,286,0.0,0.0,98,0.00,,,0.00,VWS V14.01,2013-07-19 12:56:00,
2013-07-19 09:00:00,69.1,68.5,30.03,WNW,286,0.0,0.0,98,0.00,,,0.00,VWS V14.01,2013-07-19 13:00:00,
2013-07-19 09:01:00,69.1,68.5,30.02,WNW,286,0.0,0.0,98,0.00,,,0.00,VWS V14.01,2013-07-19 13:01:00,
2013-07-19 09:05:00,69.6,69.0,30.03,WNW,286,0.0,0.0,98,0.00,,,0.00,VWS V14.01,2013-07-19 13:05:00,
2013-07-19 09:06:00,69.4,68.8,30.03,WNW,286,0.0,0.0,98,0.00,,,0.00,VWS V14.01,2013-07-19 13:06:00,
2013-07-19 09:10:00,69.9,69.3,30.03,WNW,284,1.0,0.0,98,0.00,,,0.00,VWS V14.01,2013-07-19 13:10:00,
2013-07-19 09:11:00,69.8,69.2,30.03,WNW,284,2.0,0.0,98,0.00,,,0.00,VWS V14.01,2013-07-19 13:11:00,
2013-07-19 09:15:00,69.9,69.3,30.02,WNW,284,2.0,0.0,98,0.00,,,0.00,VWS V14.01,2013-07-19 13:15:00,
2013-07-19 09:16:00,69.9,69.3,30.03,WNW,284,3.0,0.0,98,0.00,,,0.00,VWS V14.01,2013-07-19 13:16:00,
2013-07-19 09:20:00,69.9,69.3,30.02,WNW,284,2.0,0.0,98,0.00,,,0.00,VWS V14.01,2013-07-19 13:20:00,
2013-07-19 09:21:00,69.9,69.3,30.02,WNW,284,1.0,0.0,98,0.00,,,0.00,VWS V14.01,2013-07-19 13:21:00,
2013-07-19 09:25:00,70.3,69.7,30.02,WNW,284,2.0,0.0,98,0.00,,,0.00,VWS V14.01,2013-07-19 13:25:00,
2013-07-19 09:26:00,70.1,69.5,30.02,WNW,284,3.0,0.0,98,0.00,,,0.00,VWS V14.01,2013-07-19 13:26:00,
2013-07-19 09:27:00,70.3,69.7,30.02,WNW,284,2.0,0.0,98,0.00,,,0.00,VWS V14.01,2013-07-19 13:27:00,
2013-07-19 09:30:00,70.4,69.8,30.02,WNW,284,0.0,0.0,98,0.00,,,0.00,VWS V14.01,2013-07-19 13:30:00,
2013-07-19 09:32:00,70.4,69.8,30.02,WNW,284,1.0,0.0,98,0.00,,,0.00,VWS V14.01,2013-07-19 13:32:00,
2013-07-19 09:35:00,70.8,70.2,30.02,WNW,284,1.0,0.0,98,0.00,,,0.00,VWS V14.01,2013-07-19 13:35:00,
2013-07-19 09:37:00,70.8,70.2,30.02,WNW,284,2.0,0.0,98,0.00,,,0.00,VWS V14.01,2013-07-19 13:37:00,
2013-07-19 09:40:00,70.9,70.0,30.02,West,267,1.0,0.0,97,0.00,,,0.00,VWS V14.01,2013-07-19 13:40:00,
2013-07-19 09:42:00,70.9,70.3,30.02,West,267,2.0,0.0,98,0.00,,,0.00,VWS V14.01,2013-07-19 13:42:00,
2013-07-19 09:45:00,71.3,70.4,30.02,West,261,2.0,0.0,97,0.00,,,0.00,VWS V14.01,2013-07-19 13:45:00,
2013-07-19 09:47:00,71.3,70.4,30.02,West,261,3.0,0.0,97,0.00,,,0.00,VWS V14.01,2013-07-19 13:47:00,
2013-07-19 09:50:00,71.6,70.7,30.02,West,261,0.0,0.0,97,0.00,,,0.00,VWS V14.01,2013-07-19 13:50:00,
2013-07-19 09:52:00,71.6,70.7,30.02,West,262,1.0,0.0,97,0.00,,,0.00,VWS V14.01,2013-07-19 13:52:00,
2013-07-19 09:55:00,72.1,70.9,30.02,West,261,1.0,0.0,96,0.00,,,0.00,VWS V14.01,2013-07-19 13:55:00,
2013-07-19 09:57:00,72.1,70.9,30.02,West,261,1.0,0.0,96,0.00,,,0.00,VWS V14.01,2013-07-19 13:57:00,
2013-07-19 10:00:00,72.5,71.0,30.01,West,261,0.0,0.0,95,0.00,,,0.00,VWS V14.01,2013-07-19 14:00:00,
2013-07-19 10:02:00,72.5,71.0,30.01,West,261,0.0,0.0,95,0.00,,,0.00,VWS V14.01,2013-07-19 14:02:00,
2013-07-19 10:05:00,73.0,70.9,30.01,West,259,0.0,0.0,93,0.00,,,0.00,VWS V14.01,2013-07-19 14:05:00,
2013-07-19 10:07:00,73.0,70.9,30.01,West,259,0.0,0.0,93,0.00,,,0.00,VWS V14.01,2013-07-19 14:07:00,
2013-07-19 10:10:00,73.5,71.0,30.01,West,261,0.0,0.0,92,0.00,,,0.00,VWS V14.01,2013-07-19 14:10:00,
2013-07-19 10:13:00,73.5,71.0,30.01,West,261,0.0,0.0,92,0.00,,,0.00,VWS V14.01,2013-07-19 14:13:00,
2013-07-19 10:15:00,73.9,70.8,30.02,West,261,2.0,0.0,90,0.00,,,0.00,VWS V14.01,2013-07-19 14:15:00,
2013-07-19 10:18:00,74.0,70.9,30.02,West,261,2.0,0.0,90,0.00,,,0.00,VWS V14.01,2013-07-19 14:18:00,
2013-07-19 10:20:00,74.4,70.9,30.02,WNW,283,0.0,0.0,89,0.00,,,0.00,VWS V14.01,2013-07-19 14:20:00,
2013-07-19 10:23:00,74.4,70.9,30.02,WNW,282,3.0,0.0,89,0.00,,,0.00,VWS V14.01,2013-07-19 14:23:00,
2013-07-19 10:25:00,74.6,70.8,30.02,WNW,282,0.0,0.0,88,0.00,,,0.00,VWS V14.01,2013-07-19 14:25:00,
2013-07-19 10:28:00,74.7,70.9,30.02,WNW,282,1.0,0.0,88,0.00,,,0.00,VWS V14.01,2013-07-19 14:28:00,
2013-07-19 10:30:00,74.9,70.8,30.01,WSW,254,2.0,0.0,87,0.00,,,0.00,VWS V14.01,2013-07-19 14:30:00,
2013-07-19 10:33:00,74.9,70.8,30.01,WSW,254,2.0,0.0,87,0.00,,,0.00,VWS V14.01,2013-07-19 14:33:00,
2013-07-19 10:35:00,75.3,70.8,30.01,West,272,0.0,0.0,86,0.00,,,0.00,VWS V14.01,2013-07-19 14:35:00,
2013-07-19 10:38:00,75.3,70.8,30.01,West,272,1.0,0.0,86,0.00,,,0.00,VWS V14.01,2013-07-19 14:38:00,
2013-07-19 10:40:00,75.6,71.1,30.01,West,267,0.0,0.0,86,0.00,,,0.00,VWS V14.01,2013-07-19 14:40:00,
2013-07-19 10:43:00,75.6,70.8,30.01,West,267,0.0,0.0,85,0.00,,,0.00,VWS V14.01,2013-07-19 14:43:00,
2013-07-19 10:45:00,76.0,70.8,30.01,West,267,0.0,0.0,84,0.00,,,0.00,VWS V14.01,2013-07-19 14:45:00,
2013-07-19 10:48:00,76.0,70.8,30.01,West,265,3.0,0.0,84,0.00,,,0.00,VWS V14.01,2013-07-19 14:48:00,
2013-07-19 10:50:00,76.5,71.3,30.01,West,264,0.0,0.0,84,0.00,,,0.00,VWS V14.01,2013-07-19 14:50:00,
2013-07-19 10:53:00,76.5,71.3,30.01,West,264,0.0,0.0,84,0.00,,,0.00,VWS V14.01,2013-07-19 14:53:00,
2013-07-19 10:55:00,76.7,71.5,30.01,WNW,302,1.0,0.0,84,0.00,,,0.00,VWS V14.01,2013-07-19 14:55:00,
2013-07-19 10:58:00,76.8,71.2,30.01,WNW,291,2.0,0.0,83,0.00,,,0.00,VWS V14.01,2013-07-19 14:58:00,
2013-07-19 11:00:00,77.0,71.1,30.01,WNW,284,2.0,0.0,82,0.00,,,0.00,VWS V14.01,2013-07-19 15:00:00,
2013-07-19 11:03:00,77.2,71.3,30.01,WNW,284,0.0,0.0,82,0.00,,,0.00,VWS V14.01,2013-07-19 15:03:00,
2013-07-19 11:05:00,77.4,71.5,30.01,NW,325,0.0,0.0,82,0.00,,,0.00,VWS V14.01,2013-07-19 15:05:00,
2013-07-19 11:08:00,77.6,71.7,30.01,NW,325,0.0,0.0,82,0.00,,,0.00,VWS V14.01,2013-07-19 15:08:00,
2013-07-19 11:10:00,78.1,71.8,30.01,West,277,2.0,0.0,81,0.00,,,0.00,VWS V14.01,2013-07-19 15:10:00,
2013-07-19 11:13:00,78.1,71.8,30.01,West,277,0.0,0.0,81,0.00,,,0.00,VWS V14.01,2013-07-19 15:13:00,
2013-07-19 11:15:00,78.5,71.8,30.01,WSW,254,4.0,0.0,80,0.00,,,0.00,VWS V14.01,2013-07-19 15:15:00,
2013-07-19 11:18:00,78.6,71.9,30.01,WSW,254,0.0,0.0,80,0.00,,,0.00,VWS V14.01,2013-07-19 15:18:00,
2013-07-19 11:20:00,78.8,71.0,30.01,WSW,254,2.0,0.0,77,0.00,,,0.00,VWS V14.01,2013-07-19 15:20:00,
2013-07-19 11:24:00,78.8,71.0,30.01,WSW,254,2.0,0.0,77,0.00,,,0.00,VWS V14.01,2013-07-19 15:24:00,
2013-07-19 11:25:00,79.0,71.2,30.01,WSW,254,0.0,0.0,77,0.00,,,0.00,VWS V14.01,2013-07-19 15:25:00,
2013-07-19 11:29:00,79.2,71.4,30.01,WSW,254,0.0,0.0,77,0.00,,,0.00,VWS V14.01,2013-07-19 15:29:00,
2013-07-19 11:30:00,79.2,71.4,30.01,WSW,254,0.0,0.0,77,0.00,,,0.00,VWS V14.01,2013-07-19 15:30:00,
2013-07-19 11:34:00,79.2,71.8,30.01,WSW,254,0.0,0.0,78,0.00,,,0.00,VWS V14.01,2013-07-19 15:34:00,
2013-07-19 11:35:00,79.4,71.6,30.01,WSW,237,0.0,0.0,77,0.00,,,0.00,VWS V14.01,2013-07-19 15:35:00,
2013-07-19 11:39:00,79.4,71.2,30.01,WSW,237,0.0,0.0,76,0.00,,,0.00,VWS V14.01,2013-07-19 15:39:00,
2013-07-19 11:40:00,79.6,71.4,30.01,WSW,237,0.0,0.0,76,0.00,,,0.00,VWS V14.01,2013-07-19 15:40:00,
2013-07-19 11:44:00,79.6,71.4,30.01,WSW,237,0.0,0.0,76,0.00,,,0.00,VWS V14.01,2013-07-19 15:44:00,
2013-07-19 11:45:00,79.6,71.4,30.01,WNW,294,1.0,0.0,76,0.00,,,0.00,VWS V14.01,2013-07-19 15:45:00,
2013-07-19 11:49:00,79.6,71.0,30.01,WNW,294,0.0,0.0,75,0.00,,,0.00,VWS V14.01,2013-07-19 15:49:00,
2013-07-19 11:50:00,79.8,71.2,30.01,WNW,294,0.0,0.0,75,0.00,,,0.00,VWS V14.01,2013-07-19 15:50:00,
2013-07-19 11:54:00,79.8,71.6,30.01,WSW,239,2.0,0.0,76,0.00,,,0.00,VWS V14.01,2013-07-19 15:54:00,
2013-07-19 11:55:00,79.8,71.6,30.01,WSW,249,0.0,0.0,76,0.00,,,0.00,VWS V14.01,2013-07-19 15:55:00,
2013-07-19 11:59:00,79.8,71.6,30.01,WSW,249,0.0,0.0,76,0.00,,,0.00,VWS V14.01,2013-07-19 15:59:00,
2013-07-19 12:00:00,79.4,71.6,30.01,SSW,211,0.0,0.0,77,0.00,,,0.00,VWS V14.01,2013-07-19 16:00:00,
2013-07-19 12:04:00,79.4,71.6,30.01,SW,214,2.0,0.0,77,0.00,,,0.00,VWS V14.01,2013-07-19 16:04:00,
2013-07-19 12:05:00,79.4,71.2,30.01,WSW,257,2.0,0.0,76,0.00,,,0.00,VWS V14.01,2013-07-19 16:05:00,
2013-07-19 12:09:00,79.6,71.0,30.01,SSW,205,4.0,0.0,75,0.00,,,0.00,VWS V14.01,2013-07-19 16:09:00,
2013-07-19 12:10:00,80.1,71.1,30.01,SW,234,2.0,0.0,74,0.00,,,0.00,VWS V14.01,2013-07-19 16:10:00,
2013-07-19 12:14:00,80.3,70.9,30.01,WSW,241,2.0,0.0,73,0.00,,,0.00,VWS V14.01,2013-07-19 16:14:00,
2013-07-19 12:15:00,80.9,71.0,30.00,WNW,298,1.0,0.0,72,0.00,,,0.00,VWS V14.01,2013-07-19 16:15:00,
2013-07-19 12:19:00,81.1,71.2,30.00,WNW,298,1.0,0.0,72,0.00,,,0.00,VWS V14.01,2013-07-19 16:19:00,
2013-07-19 12:20:00,81.6,71.3,30.00,WNW,296,0.0,0.0,71,0.00,,,0.00,VWS V14.01,2013-07-19 16:20:00,
2013-07-19 12:24:00,82.2,71.0,30.00,NNW,346,4.0,0.0,69,0.00,,,0.00,VWS V14.01,2013-07-19 16:24:00,
2013-07-19 12:25:00,82.4,70.3,30.00,NW,317,0.0,0.0,67,0.00,,,0.00,VWS V14.01,2013-07-19 16:25:00,
2013-07-19 12:30:00,82.8,71.2,30.00,NW,317,1.0,0.0,68,0.00,,,0.00,VWS V14.01,2013-07-19 16:30:00,
2013-07-19 12:35:00,83.4,71.7,29.99,WNW,297,2.0,0.0,68,0.00,,,0.00,VWS V14.01,2013-07-19 16:35:00,
2013-07-19 12:40:00,83.6,71.9,29.99,WSW,237,1.0,0.0,68,0.00,,,0.00,VWS V14.01,2013-07-19 16:40:00,
2013-07-19 12:45:00,83.2,71.1,29.99,SW,226,0.0,0.0,67,0.00,,,0.00,VWS V14.01,2013-07-19 16:45:00,
2013-07-19 12:50:00,83.0,71.4,29.99,SW,235,2.0,0.0,68,0.00,,,0.00,VWS V14.01,2013-07-19 16:50:00,
2013-07-19 12:55:00,83.2,71.6,29.99,WSW,250,1.0,0.0,68,0.00,,,0.00,VWS V14.01,2013-07-19 16:55:00,
2013-07-19 13:00:00,83.8,71.7,29.99,North,5,1.0,0.0,67,0.00,,,0.00,VWS V14.01,2013-07-19 17:00:00,
2013-07-19 13:05:00,84.5,71.4,29.98,WNW,294,1.0,0.0,65,0.00,,,0.00,VWS V14.01,2013-07-19 17:05:00,
2013-07-19 13:10:00,85.1,70.2,29.98,WSW,238,3.0,0.0,61,0.00,,,0.00,VWS V14.01,2013-07-19 17:10:00,
2013-07-19 13:15:00,84.7,70.7,29.98,West,267,2.0,0.0,63,0.00,,,0.00,VWS V14.01,2013-07-19 17:15:00,
2013-07-19 13:20:00,84.5,70.5,29.98,West,275,0.0,0.0,63,0.00,,,0.00,VWS V14.01,2013-07-19 17:20:00,
2013-07-19 13:25:00,83.8,71.2,29.98,SSW,204,0.0,0.0,66,0.00,,,0.00,VWS V14.01,2013-07-19 17:25:00,
2013-07-19 13:26:00,83.8,71.7,29.98,West,275,0.0,0.0,67,0.00,,,0.00,VWS V14.01,2013-07-19 17:26:00,
2013-07-19 13:30:00,84.1,70.6,29.97,West,267,1.0,0.0,64,0.00,,,0.00,VWS V14.01,2013-07-19 17:30:00,
2013-07-19 13:31:00,84.0,70.1,29.98,NW,321,0.0,0.0,63,0.00,,,0.00,VWS V14.01,2013-07-19 17:31:00,
2013-07-19 13:35:00,85.1,70.6,29.97,West,275,1.0,0.0,62,0.00,,,0.00,VWS V14.01,2013-07-19 17:35:00,
2013-07-19 13:36:00,84.9,70.9,29.97,West,269,0.0,0.0,63,0.00,,,0.00,VWS V14.01,2013-07-19 17:36:00,
2013-07-19 13:40:00,85.9,71.4,29.97,WNW,300,0.0,0.0,62,0.00,,,0.00,VWS V14.01,2013-07-19 17:40:00,
2013-07-19 13:41:00,85.7,71.2,29.97,WNW,300,1.0,0.0,62,0.00,,,0.00,VWS V14.01,2013-07-19 17:41:00,
2013-07-19 13:45:00,86.1,71.1,29.96,WSW,249,3.0,0.0,61,0.00,,,0.00,VWS V14.01,2013-07-19 17:45:00,
2013-07-19 13:46:00,86.1,70.6,29.97,WNW,299,1.0,0.0,60,0.00,,,0.00,VWS V14.01,2013-07-19 17:46:00,
2013-07-19 13:50:00,86.1,71.6,29.96,WSW,243,0.0,0.0,62,0.00,,,0.00,VWS V14.01,2013-07-19 17:50:00,
2013-07-19 13:51:00,86.1,71.6,29.96,WSW,243,2.0,0.0,62,0.00,,,0.00,VWS V14.01,2013-07-19 17:51:00,
2013-07-19 13:55:00,86.3,70.8,29.96,SW,232,0.0,0.0,60,0.00,,,0.00,VWS V14.01,2013-07-19 17:55:00,
2013-07-19 13:56:00,86.3,71.3,29.96,WSW,240,0.0,0.0,61,0.00,,,0.00,VWS V14.01,2013-07-19 17:56:00,
2013-07-19 14:00:00,87.0,71.9,29.95,SW,216,2.0,0.0,61,0.00,,,0.00,VWS V14.01,2013-07-19 18:00:00,
2013-07-19 14:01:00,87.0,71.4,29.96,West,265,2.0,0.0,60,0.00,,,0.00,VWS V14.01,2013-07-19 18:01:00,
2013-07-19 14:05:00,86.7,70.2,29.95,SSW,205,0.0,0.0,58,0.00,,,0.00,VWS V14.01,2013-07-19 18:05:00,
2013-07-19 14:06:00,87.0,70.4,29.95,West,274,1.0,0.0,58,0.00,,,0.00,VWS V14.01,2013-07-19 18:06:00,
2013-07-19 14:10:00,87.0,70.9,29.95,WSW,238,0.0,0.0,59,0.00,,,0.00,VWS V14.01,2013-07-19 18:10:00,
2013-07-19 14:11:00,86.7,70.2,29.95,WSW,238,1.0,0.0,58,0.00,,,0.00,VWS V14.01,2013-07-19 18:11:00,
2013-07-19 14:15:00,87.6,71.0,29.94,West,264,0.0,0.0,58,0.00,,,0.00,VWS V14.01,2013-07-19 18:15:00,
2013-07-19 14:16:00,87.4,70.8,29.94,West,267,0.0,0.0,58,0.00,,,0.00,VWS V14.01,2013-07-19 18:16:00,
2013-07-19 14:20:00,87.8,70.2,29.94,West,273,1.0,0.0,56,0.00,,,0.00,VWS V14.01,2013-07-19 18:20:00,
2013-07-19 14:21:00,87.8,69.1,29.94,WSW,241,1.0,0.0,54,0.00,,,0.00,VWS V14.01,2013-07-19 18:21:00,
2013-07-19 14:25:00,88.4,70.2,29.94,WNW,283,1.0,0.0,55,0.00,,,0.00,VWS V14.01,2013-07-19 18:25:00,
2013-07-19 14:26:00,88.4,70.2,29.94,WNW,284,3.0,0.0,55,0.00,,,0.00,VWS V14.01,2013-07-19 18:26:00,
2013-07-19 14:30:00,88.6,71.9,29.93,WSW,244,1.0,0.0,58,0.00,,,0.00,VWS V14.01,2013-07-19 18:30:00,
2013-07-19 14:32:00,88.6,71.9,29.93,WSW,244,0.0,0.0,58,0.00,,,0.00,VWS V14.01,2013-07-19 18:32:00,
2013-07-19 14:35:00,89.3,72.1,29.93,WNW,296,0.0,0.0,57,0.00,,,0.00,VWS V14.01,2013-07-19 18:35:00,
2013-07-19 14:37:00,89.3,71.6,29.93,WNW,296,0.0,0.0,56,0.00,,,0.00,VWS V14.01,2013-07-19 18:37:00,
2013-07-19 14:40:00,89.7,71.9,29.93,WNW,290,1.0,0.0,56,0.00,,,0.00,VWS V14.01,2013-07-19 18:40:00,
2013-07-19 14:42:00,89.7,71.9,29.93,WNW,290,2.0,0.0,56,0.00,,,0.00,VWS V14.01,2013-07-19 18:42:00,
2013-07-19 14:45:00,89.7,71.4,29.92,WSW,253,0.0,0.0,55,0.00,,,0.00,VWS V14.01,2013-07-19 18:45:00,
2013-07-19 14:47:00,89.7,72.4,29.92,WSW,253,2.0,0.0,57,0.00,,,0.00,VWS V14.01,2013-07-19 18:47:00,
2013-07-19 14:50:00,89.5,72.3,29.92,WSW,252,0.0,0.0,57,0.00,,,0.00,VWS V14.01,2013-07-19 18:50:00,
2013-07-19 14:52:00,89.5,72.8,29.92,WSW,253,1.0,0.0,58,0.00,,,0.00,VWS V14.01,2013-07-19 18:52:00,
2013-07-19 14:55:00,89.3,71.6,29.92,WSW,252,1.0,0.0,56,0.00,,,0.00,VWS V14.01,2013-07-19 18:55:00,
2013-07-19 14:57:00,89.3,71.0,29.92,WSW,252,2.0,0.0,55,0.00,,,0.00,VWS V14.01,2013-07-19 18:57:00,
2013-07-19 15:00:00,88.8,71.6,29.92,WSW,257,3.0,0.0,57,0.00,,,0.00,VWS V14.01,2013-07-19 19:00:00,
2013-07-19 15:02:00,88.8,71.6,29.92,West,265,2.0,0.0,57,0.00,,,0.00,VWS V14.01,2013-07-19 19:02:00,
2013-07-19 15:05:00,88.4,71.2,29.92,WSW,244,1.0,0.0,57,0.00,,,0.00,VWS V14.01,2013-07-19 19:05:00,
2013-07-19 15:07:00,88.4,71.2,29.92,WSW,244,2.0,0.0,57,0.00,,,0.00,VWS V14.01,2013-07-19 19:07:00,
2013-07-19 15:10:00,88.0,71.4,29.92,SW,227,2.0,0.0,58,0.00,,,0.00,VWS V14.01,2013-07-19 19:10:00,
2013-07-19 15:12:00,88.0,71.4,29.92,SW,227,2.0,0.0,58,0.00,,,0.00,VWS V14.01,2013-07-19 19:12:00,
2013-07-19 15:15:00,88.0,71.4,29.92,WSW,253,1.0,0.0,58,0.00,,,0.00,VWS V14.01,2013-07-19 19:15:00,
2013-07-19 15:17:00,88.0,71.4,29.92,WSW,253,1.0,0.0,58,0.00,,,0.00,VWS V14.01,2013-07-19 19:17:00,
2013-07-19 15:20:00,88.0,72.4,29.92,West,264,1.0,0.0,60,0.00,,,0.00,VWS V14.01,2013-07-19 19:20:00,
2013-07-19 15:22:00,88.0,72.4,29.92,West,264,1.0,0.0,60,0.00,,,0.00,VWS V14.01,2013-07-19 19:22:00,
2013-07-19 15:25:00,88.4,72.3,29.92,West,267,0.0,0.0,59,0.00,,,0.00,VWS V14.01,2013-07-19 19:25:00,
2013-07-19 15:27:00,88.4,72.3,29.92,West,267,0.0,0.0,59,0.00,,,0.00,VWS V14.01,2013-07-19 19:27:00,
2013-07-19 15:30:00,88.8,72.1,29.91,West,267,0.0,0.0,58,0.00,,,0.00,VWS V14.01,2013-07-19 19:30:00,
2013-07-19 15:32:00,88.8,72.1,29.91,West,267,0.0,0.0,58,0.00,,,0.00,VWS V14.01,2013-07-19 19:32:00,
2013-07-19 15:35:00,88.6,70.9,29.91,SW,234,0.0,0.0,56,0.00,,,0.00,VWS V14.01,2013-07-19 19:35:00,
2013-07-19 15:37:00,88.6,70.9,29.91,SW,234,0.0,0.0,56,0.00,,,0.00,VWS V14.01,2013-07-19 19:37:00,
2013-07-19 15:40:00,88.4,71.8,29.91,West,281,1.0,0.0,58,0.00,,,0.00,VWS V14.01,2013-07-19 19:40:00,
2013-07-19 15:42:00,88.4,71.8,29.91,West,281,1.0,0.0,58,0.00,,,0.00,VWS V14.01,2013-07-19 19:42:00,
2013-07-19 15:45:00,88.4,70.7,29.90,SSW,207,0.0,0.0,56,0.00,,,0.00,VWS V14.01,2013-07-19 19:45:00,
2013-07-19 15:47:00,88.4,70.7,29.90,SSW,207,1.0,0.0,56,0.00,,,0.00,VWS V14.01,2013-07-19 19:47:00,
2013-07-19 15:50:00,88.4,71.8,29.90,WNW,297,1.0,0.0,58,0.00,,,0.00,VWS V14.01,2013-07-19 19:50:00,
2013-07-19 15:53:00,88.4,71.8,29.90,WNW,297,1.0,0.0,58,0.00,,,0.00,VWS V14.01,2013-07-19 19:53:00,
2013-07-19 15:55:00,88.8,70.6,29.90,WSW,242,1.0,0.0,55,0.00,,,0.00,VWS V14.01,2013-07-19 19:55:00,
2013-07-19 15:58:00,88.8,70.6,29.90,WSW,242,2.0,0.0,55,0.00,,,0.00,VWS V14.01,2013-07-19 19:58:00,
2013-07-19 16:00:00,88.2,70.5,29.90,WSW,257,0.0,0.0,56,0.00,,,0.00,VWS V14.01,2013-07-19 20:00:00,
2013-07-19 16:03:00,88.2,70.5,29.90,WSW,257,0.0,0.0,56,0.00,,,0.00,VWS V14.01,2013-07-19 20:03:00,
2013-07-19 16:05:00,88.2,71.1,29.90,WSW,258,2.0,0.0,57,0.00,,,0.00,VWS V14.01,2013-07-19 20:05:00,
2013-07-19 16:08:00,88.2,71.6,29.90,WSW,258,2.0,0.0,58,0.00,,,0.00,VWS V14.01,2013-07-19 20:08:00,
2013-07-19 16:10:00,88.4,71.2,29.90,WSW,239,1.0,0.0,57,0.00,,,0.00,VWS V14.01,2013-07-19 20:10:00,
2013-07-19 16:13:00,88.4,71.8,29.90,WSW,239,0.0,0.0,58,0.00,,,0.00,VWS V14.01,2013-07-19 20:13:00,
2013-07-19 16:15:00,88.8,70.6,29.89,WSW,257,1.0,0.0,55,0.00,,,0.00,VWS V14.01,2013-07-19 20:15:00,
2013-07-19 16:18:00,88.8,71.1,29.89,WSW,257,0.0,0.0,56,0.00,,,0.00,VWS V14.01,2013-07-19 20:18:00,
2013-07-19 16:20:00,89.0,70.8,29.89,WSW,257,0.0,0.0,55,0.00,,,0.00,VWS V14.01,2013-07-19 20:20:00,
2013-07-19 16:23:00,89.0,70.8,29.89,WSW,257,1.0,0.0,55,0.00,,,0.00,VWS V14.01,2013-07-19 20:23:00,
2013-07-19 16:25:00,89.5,69.6,29.89,West,262,2.0,0.0,52,0.00,,,0.00,VWS V14.01,2013-07-19 20:25:00,
2013-07-19 16:28:00,89.5,69.6,29.89,West,268,1.0,0.0,52,0.00,,,0.00,VWS V14.01,2013-07-19 20:28:00,
2013-07-19 16:30:00,89.7,70.3,29.89,South,181,0.0,0.0,53,0.00,,,0.00,VWS V14.01,2013-07-19 20:30:00,
2013-07-19 16:34:00,89.7,70.3,29.89,WNW,284,4.0,0.0,53,0.00,,,0.00,VWS V14.01,2013-07-19 20:34:00,
2013-07-19 16:35:00,89.5,69.6,29.89,West,261,0.0,0.0,52,0.00,,,0.00,VWS V14.01,2013-07-19 20:35:00,
2013-07-19 16:39:00,89.0,70.8,29.89,West,261,0.0,0.0,55,0.00,,,0.00,VWS V14.01,2013-07-19 20:39:00,
2013-07-19 16:40:00,89.0,69.7,29.89,West,261,1.0,0.0,53,0.00,,,0.00,VWS V14.01,2013-07-19 20:40:00,
2013-07-19 16:44:00,89.3,70.5,29.89,West,261,1.0,0.0,54,0.00,,,0.00,VWS V14.01,2013-07-19 20:44:00,
2013-07-19 16:45:00,89.5,70.1,29.89,West,275,0.0,0.0,53,0.00,,,0.00,VWS V14.01,2013-07-19 20:45:00,
2013-07-19 16:49:00,89.7,69.8,29.89,West,275,1.0,0.0,52,0.00,,,0.00,VWS V14.01,2013-07-19 20:49:00,
2013-07-19 16:50:00,90.1,69.6,29.89,West,259,3.0,0.0,51,0.00,,,0.00,VWS V14.01,2013-07-19 20:50:00,
2013-07-19 16:54:00,90.1,69.6,29.89,West,259,1.0,0.0,51,0.00,,,0.00,VWS V14.01,2013-07-19 20:54:00,
2013-07-19 16:55:00,90.1,70.7,29.89,WSW,258,2.0,0.0,53,0.00,,,0.00,VWS V14.01,2013-07-19 20:55:00,
2013-07-19 16:59:00,89.9,69.9,29.89,WSW,245,1.0,0.0,52,0.00,,,0.00,VWS V14.01,2013-07-19 20:59:00,
2013-07-19 17:00:00,89.7,69.8,29.88,WSW,245,1.0,0.0,52,0.00,,,0.00,VWS V14.01,2013-07-19 21:00:00,
2013-07-19 17:04:00,89.7,70.3,29.88,WSW,245,0.0,0.0,53,0.00,,,0.00,VWS V14.01,2013-07-19 21:04:00,
2013-07-19 17:05:00,89.5,71.7,29.88,WSW,245,0.0,0.0,56,0.00,,,0.00,VWS V14.01,2013-07-19 21:05:00,
2013-07-19 17:09:00,89.3,71.0,29.88,WSW,245,2.0,0.0,55,0.00,,,0.00,VWS V14.01,2013-07-19 21:09:00,
2013-07-19 17:10:00,89.0,70.2,29.88,West,265,2.0,0.0,54,0.00,,,0.00,VWS V14.01,2013-07-19 21:10:00,
2013-07-19 17:14:00,89.0,71.3,29.88,WSW,258,0.0,0.0,56,0.00,,,0.00,VWS V14.01,2013-07-19 21:14:00,
2013-07-19 17:15:00,88.8,68.9,29.88,WSW,258,0.0,0.0,52,0.00,,,0.00,VWS V14.01,2013-07-19 21:15:00,
2013-07-19 17:19:00,88.8,70.0,29.88,WSW,258,1.0,0.0,54,0.00,,,0.00,VWS V14.01,2013-07-19 21:19:00,
2013-07-19 17:20:00,88.6,70.9,29.88,WSW,256,1.0,0.0,56,0.00,,,0.00,VWS V14.01,2013-07-19 21:20:00,
2013-07-19 17:25:00,88.6,69.8,29.88,WSW,256,1.0,0.0,54,0.00,,,0.00,VWS V14.01,2013-07-19 21:25:00,
2013-07-19 17:30:00,88.6,70.9,29.88,WSW,256,2.0,0.0,56,0.00,,,0.00,VWS V14.01,2013-07-19 21:30:00,
2013-07-19 17:35:00,88.2,71.1,29.87,West,259,3.0,0.0,57,0.00,,,0.00,VWS V14.01,2013-07-19 21:35:00,
2013-07-19 17:40:00,88.2,70.0,29.87,WSW,247,1.0,0.0,55,0.00,,,0.00,VWS V14.01,2013-07-19 21:40:00,
2013-07-19 17:45:00,88.6,71.4,29.87,WSW,238,1.0,0.0,57,0.00,,,0.00,VWS V14.01,2013-07-19 21:45:00,
2013-07-19 17:50:00,88.8,71.1,29.87,West,263,2.0,0.0,56,0.00,,,0.00,VWS V14.01,2013-07-19 21:50:00,
2013-07-19 17:55:00,88.6,69.8,29.87,WSW,254,1.0,0.0,54,0.00,,,0.00,VWS V14.01,2013-07-19 21:55:00,
2013-07-19 18:00:00,88.6,69.8,29.87,WSW,254,0.0,0.0,54,0.00,,,0.00,VWS V14.01,2013-07-19 22:00:00,
2013-07-19 18:05:00,88.8,70.0,29.87,WSW,254,2.0,0.0,54,0.00,,,0.00,VWS V14.01,2013-07-19 22:05:00,
2013-07-19 18:10:00,88.6,68.7,29.87,SW,217,0.0,0.0,52,0.00,,,0.00,VWS V14.01,2013-07-19 22:10:00,
2013-07-19 18:15:00,88.2,69.5,29.87,SW,219,0.0,0.0,54,0.00,,,0.00,VWS V14.01,2013-07-19 22:15:00,
2013-07-19 18:20:00,88.0,69.8,29.87,SW,219,0.0,0.0,55,0.00,,,0.00,VWS V14.01,2013-07-19 22:20:00,
2013-07-19 18:25:00,87.8,69.6,29.87,SW,219,0.0,0.0,55,0.00,,,0.00,VWS V14.01,2013-07-19 22:25:00,
2013-07-19 18:30:00,87.4,70.8,29.87,SW,219,0.0,0.0,58,0.00,,,0.00,VWS V14.01,2013-07-19 22:30:00,
2013-07-19 18:35:00,87.0,71.9,29.88,SW,219,0.0,0.0,61,0.00,,,0.00,VWS V14.01,2013-07-19 22:35:00,
2013-07-19 18:40:00,86.3,70.8,29.88,SW,219,0.0,0.0,60,0.00,,,0.00,VWS V14.01,2013-07-19 22:40:00,
2013-07-19 18:45:00,85.7,72.1,29.88,SW,219,0.0,0.0,64,0.00,,,0.00,VWS V14.01,2013-07-19 22:45:00,
2013-07-19 18:50:00,84.3,72.6,29.87,SW,219,0.0,0.0,68,0.00,,,0.00,VWS V14.01,2013-07-19 22:50:00,
2013-07-19 18:51:00,84.7,71.6,29.87,SW,219,0.0,0.0,65,0.00,,,0.00,VWS V14.01,2013-07-19 22:51:00,
2013-07-19 18:55:00,83.4,71.7,29.87,SW,219,0.0,0.0,68,0.00,,,0.00,VWS V14.01,2013-07-19 22:55:00,
2013-07-19 18:56:00,83.6,72.4,29.87,SW,219,0.0,0.0,69,0.00,,,0.00,VWS V14.01,2013-07-19 22:56:00,
2013-07-19 19:00:00,83.0,72.2,29.88,SW,219,0.0,0.0,70,0.00,,,0.00,VWS V14.01,2013-07-19 23:00:00,
2013-07-19 19:01:00,83.2,72.4,29.87,SW,219,0.0,0.0,70,0.00,,,0.00,VWS V14.01,2013-07-19 23:01:00,
2013-07-19 19:05:00,82.6,71.8,29.88,SW,219,0.0,0.0,70,0.00,,,0.00,VWS V14.01,2013-07-19 23:05:00,
2013-07-19 19:06:00,82.6,71.8,29.88,SW,219,0.0,0.0,70,0.00,,,0.00,VWS V14.01,2013-07-19 23:06:00,
2013-07-19 19:10:00,82.4,72.5,29.88,SW,219,0.0,0.0,72,0.00,,,0.00,VWS V14.01,2013-07-19 23:10:00,
2013-07-19 19:11:00,82.4,72.5,29.88,SW,219,0.0,0.0,72,0.00,,,0.00,VWS V14.01,2013-07-19 23:11:00,
2013-07-19 19:15:00,82.0,72.5,29.87,SW,219,0.0,0.0,73,0.00,,,0.00,VWS V14.01,2013-07-19 23:15:00,
2013-07-19 19:16:00,82.0,72.5,29.88,SW,219,0.0,0.0,73,0.00,,,0.00,VWS V14.01,2013-07-19 23:16:00,
2013-07-19 19:20:00,81.6,72.5,29.87,SW,219,0.0,0.0,74,0.00,,,0.00,VWS V14.01,2013-07-19 23:20:00,
2013-07-19 19:21:00,81.8,72.7,29.87,SW,219,0.0,0.0,74,0.00,,,0.00,VWS V14.01,2013-07-19 23:21:00,
2013-07-19 19:25:00,81.2,72.5,29.87,SW,219,0.0,0.0,75,0.00,,,0.00,VWS V14.01,2013-07-19 23:25:00,
2013-07-19 19:26:00,81.2,72.9,29.87,SW,219,0.0,0.0,76,0.00,,,0.00,VWS V14.01,2013-07-19 23:26:00,
2013-07-19 19:30:00,80.5,72.2,29.87,NW,305,1.0,0.0,76,0.00,,,0.00,VWS V14.01,2013-07-19 23:30:00,
2013-07-19 19:31:00,80.7,72.4,29.87,NW,304,2.0,0.0,76,0.00,,,0.00,VWS V14.01,2013-07-19 23:31:00,
2013-07-19 19:35:00,80.3,71.3,29.87,North,355,3.0,0.0,74,0.00,,,0.00,VWS V14.01,2013-07-19 23:35:00,
2013-07-19 19:36:00,80.3,71.3,29.87,NW,305,3.0,0.0,74,0.00,,,0.00,VWS V14.01,2013-07-19 23:36:00,
2013-07-19 19:40:00,80.1,71.1,29.87,North,350,1.0,0.0,74,0.00,,,0.00,VWS V14.01,2013-07-19 23:40:00,
2013-07-19 19:41:00,80.1,70.7,29.87,North,350,1.0,0.0,73,0.00,,,0.00,VWS V14.01,2013-07-19 23:41:00,
2013-07-19 19:45:00,80.1,71.9,29.89,North,350,0.0,0.0,76,0.00,,,0.00,VWS V14.01,2013-07-19 23:45:00,
2013-07-19 19:47:00,80.1,71.5,29.89,North,350,0.0,0.0,75,0.00,,,0.00,VWS V14.01,2013-07-19 23:47:00,
2013-07-19 19:50:00,79.8,71.9,29.89,North,350,1.0,0.0,77,0.00,,,0.00,VWS V14.01,2013-07-19 23:50:00,
2013-07-19 19:52:00,79.8,71.9,29.89,North,350,0.0,0.0,77,0.00,,,0.00,VWS V14.01,2013-07-19 23:52:00,
2013-07-19 19:55:00,79.4,70.4,29.89,North,350,0.0,0.0,74,0.00,,,0.00,VWS V14.01,2013-07-19 23:55:00,
2013-07-19 19:57:00,79.4,70.8,29.89,North,350,2.0,0.0,75,0.00,,,0.00,VWS V14.01,2013-07-19 23:57:00,
2013-07-19 20:00:00,79.4,70.8,29.89,North,350,0.0,0.0,75,0.00,,,0.00,VWS V14.01,2013-07-20 00:00:00,
2013-07-19 20:02:00,79.4,70.0,29.89,North,350,0.0,0.0,73,0.00,,,0.00,VWS V14.01,2013-07-20 00:02:00,
2013-07-19 20:05:00,79.2,71.8,29.89,North,350,0.0,0.0,78,0.00,,,0.00,VWS V14.01,2013-07-20 00:05:00,
2013-07-19 20:07:00,79.2,71.8,29.89,North,350,0.0,0.0,78,0.00,,,0.00,VWS V14.01,2013-07-20 00:07:00,
2013-07-19 20:10:00,78.8,71.7,29.89,North,350,0.0,0.0,79,0.00,,,0.00,VWS V14.01,2013-07-20 00:10:00,
2013-07-19 20:12:00,78.8,71.7,29.89,North,350,0.0,0.0,79,0.00,,,0.00,VWS V14.01,2013-07-20 00:12:00,
2013-07-19 20:15:00,78.5,70.7,29.89,North,350,1.0,0.0,77,0.00,,,0.00,VWS V14.01,2013-07-20 00:15:00,
2013-07-19 20:17:00,78.5,70.7,29.89,North,350,0.0,0.0,77,0.00,,,0.00,VWS V14.01,2013-07-20 00:17:00,
2013-07-19 20:20:00,78.3,69.3,29.89,North,0,1.0,3.0,74,0.00,,,0.00,VWS V14.01,2013-07-20 00:20:00,
2013-07-19 20:25:00,78.3,68.9,29.89,North,0,1.0,3.0,73,0.00,,,0.00,VWS V14.01,2013-07-20 00:25:00,
2013-07-19 20:30:00,78.5,70.3,29.89,North,0,0.0,2.0,76,0.00,,,0.00,VWS V14.01,2013-07-20 00:30:00,
2013-07-19 20:35:00,78.3,70.5,29.89,North,0,0.0,1.0,77,0.00,,,0.00,VWS V14.01,2013-07-20 00:35:00,
2013-07-19 20:40:00,77.9,71.2,29.89,North,0,0.0,0.0,80,0.00,,,0.00,VWS V14.01,2013-07-20 00:40:00,
2013-07-19 20:45:00,77.2,70.6,29.90,North,0,0.0,1.0,80,0.00,,,0.00,VWS V14.01,2013-07-20 00:45:00,
2013-07-19 20:50:00,77.0,70.0,29.90,North,0,0.0,1.0,79,0.00,,,0.00,VWS V14.01,2013-07-20 00:50:00,
2013-07-19 20:55:00,76.8,70.5,29.90,North,0,0.0,0.0,81,0.00,,,0.00,VWS V14.01,2013-07-20 00:55:00,
2013-07-19 21:00:00,76.7,71.2,29.91,North,0,0.0,0.0,83,0.00,,,0.00,VWS V14.01,2013-07-20 01:00:00,
2013-07-19 21:05:00,76.3,70.8,29.91,North,0,0.0,1.0,83,0.00,,,0.00,VWS V14.01,2013-07-20 01:05:00,
2013-07-19 21:10:00,76.0,70.8,29.91,North,0,0.0,1.0,84,0.00,,,0.00,VWS V14.01,2013-07-20 01:10:00,
2013-07-19 21:15:00,75.8,70.6,29.91,North,0,0.0,1.0,84,0.00,,,0.00,VWS V14.01,2013-07-20 01:15:00,
2013-07-19 21:20:00,75.6,70.8,29.91,North,0,0.0,0.0,85,0.00,,,0.00,VWS V14.01,2013-07-20 01:20:00,
2013-07-19 21:25:00,75.3,70.1,29.91,North,0,0.0,0.0,84,0.00,,,0.00,VWS V14.01,2013-07-20 01:25:00,
2013-07-19 21:30:00,75.1,69.2,29.91,North,0,0.0,0.0,82,0.00,,,0.00,VWS V14.01,2013-07-20 01:30:00,
2013-07-19 21:35:00,74.9,68.3,29.91,North,0,0.0,0.0,80,0.00,,,0.00,VWS V14.01,2013-07-20 01:35:00,
2013-07-19 21:40:00,75.1,68.2,29.91,North,0,0.0,0.0,79,0.00,,,0.00,VWS V14.01,2013-07-20 01:40:00,
2013-07-19 21:45:00,75.1,68.2,29.91,North,0,0.0,0.0,79,0.00,,,0.00,VWS V14.01,2013-07-20 01:45:00,
2013-07-19 21:50:00,75.3,68.0,29.91,North,0,0.0,0.0,78,0.00,,,0.00,VWS V14.01,2013-07-20 01:50:00,
2013-07-19 21:55:00,75.3,68.7,29.91,North,0,0.0,0.0,80,0.00,,,0.00,VWS V14.01,2013-07-20 01:55:00,
2013-07-19 22:00:00,75.3,69.1,29.92,North,0,0.0,0.0,81,0.00,,,0.00,VWS V14.01,2013-07-20 02:00:00,
2013-07-19 22:05:00,75.1,68.9,29.92,North,0,0.0,0.0,81,0.00,,,0.00,VWS V14.01,2013-07-20 02:05:00,
2013-07-19 22:10:00,74.6,68.8,29.92,North,0,0.0,0.0,82,0.00,,,0.00,VWS V14.01,2013-07-20 02:10:00,
2013-07-19 22:15:00,74.4,68.2,29.92,North,0,0.0,0.0,81,0.00,,,0.00,VWS V14.01,2013-07-20 02:15:00,
2013-07-19 22:20:00,74.2,68.4,29.92,North,0,0.0,0.0,82,0.00,,,0.00,VWS V14.01,2013-07-20 02:20:00,
2013-07-19 22:25:00,74.0,68.2,29.92,North,0,0.0,0.0,82,0.00,,,0.00,VWS V14.01,2013-07-20 02:25:00,
2013-07-19 22:30:00,74.0,68.9,29.93,North,0,0.0,1.0,84,0.00,,,0.00,VWS V14.01,2013-07-20 02:30:00,
2013-07-19 22:35:00,74.0,68.9,29.93,North,0,0.0,0.0,84,0.00,,,0.00,VWS V14.01,2013-07-20 02:35:00,
2013-07-19 22:40:00,74.0,69.2,29.93,North,0,0.0,1.0,85,0.00,,,0.00,VWS V14.01,2013-07-20 02:40:00,
2013-07-19 22:45:00,74.0,69.6,29.94,North,0,0.0,1.0,86,0.00,,,0.00,VWS V14.01,2013-07-20 02:45:00,
2013-07-19 22:50:00,74.0,69.2,29.94,SW,225,0.0,3.0,85,0.00,,,0.00,VWS V14.01,2013-07-20 02:50:00,
2013-07-19 22:55:00,74.0,68.2,29.94,SW,225,1.0,3.0,82,0.00,,,0.00,VWS V14.01,2013-07-20 02:55:00,
2013-07-19 23:00:00,74.0,67.1,29.94,NE,45,1.0,4.0,79,0.00,,,0.00,VWS V14.01,2013-07-20 03:00:00,
2013-07-19 23:05:00,73.5,68.4,29.94,NW,315,0.0,2.0,84,0.11,,,0.11,VWS V14.01,2013-07-20 03:05:00,
2013-07-19 23:10:00,72.5,68.4,29.94,North,0,0.0,2.0,87,0.16,,,0.16,VWS V14.01,2013-07-20 03:10:00,
2013-07-19 23:15:00,71.8,68.4,29.95,WNW,292,1.0,4.0,89,0.19,,,0.19,VWS V14.01,2013-07-20 03:15:00,
2013-07-19 23:20:00,71.3,68.5,29.95,WNW,292,0.0,1.0,91,0.29,,,0.29,VWS V14.01,2013-07-20 03:20:00,
2013-07-19 23:25:00,70.8,68.4,29.95,WNW,292,0.0,0.0,92,0.35,,,0.35,VWS V14.01,2013-07-20 03:25:00,
2013-07-19 23:30:00,70.3,67.9,29.95,North,0,0.0,3.0,92,0.37,,,0.37,VWS V14.01,2013-07-20 03:30:00,
2013-07-19 23:35:00,69.9,67.8,29.95,North,0,0.0,1.0,93,0.37,,,0.37,VWS V14.01,2013-07-20 03:35:00,
2013-07-19 23:40:00,69.8,67.7,29.95,North,0,0.0,0.0,93,0.37,,,0.37,VWS V14.01,2013-07-20 03:40:00,
2013-07-19 23:45:00,69.8,68.0,29.94,North,0,0.0,0.0,94,0.37,,,0.37,VWS V14.01,2013-07-20 03:45:00,
2013-07-19 23:50:00,69.6,67.8,29.94,North,0,0.0,0.0,94,0.37,,,0.37,VWS V14.01,2013-07-20 03:50:00,
2013-07-19 23:55:00,69.4,67.9,29.94,North,0,0.0,0.0,95,0.37,,,0.37,VWS V14.01,2013-07-20 03:55:00,